Location: Brachstadt
(48.6975°N, 10.6755°E)
Time: 06:32:02
(UTC+00:00)

Cosmos 1867 - Pass Details

Date: 18 September 2020
Orbit: 777 x 799 km, 65.0° (Epoch: 27 October)

Event Time Altitude Azimuth Distance (km) Brightness Sun altitude
Rises 18:25:37 0° 321° (NW) 3,313 7.8 -11.0°
Reaches altitude 10° 18:28:03 10° 322° (NW) 2,381 6.9 -11.4°
Maximum altitude 18:33:33 88° 48° (NE) 806 3.6 -12.3°
Enters shadow 18:38:36 12° 142° (SE) 2,203 5.4 -13.1°
